Regional Weather Roundup
Issued by NWS

Home | Current Version | Previous Version | Text Only | Print | Product List | Glossary Off
Versions: 1 2 3 4 5 6 7 8 9 10 11 12 13 14 15 16 17 18 19 20 21 22 23 24 25 26 27 28 29 30 31 32 33 34 35 36 37 38 39 40 41 42 43 44 45 46 47 48 49 50

430
ASUS45 KBOU 151010
RWRCO

WEATHER ROUNDUP FOR COLORADO
NATIONAL WEATHER SERVICE DENVER/BOULDER CO
300 AM MST FRI DEC 15 2017

NOTE: "FAIR" INDICATES FEW OR NO CLOUDS BELOW 12000 FEET WITH NO
SIGNIFICANT WEATHER AND/OR OBSTRUCTIONS TO VISIBILITY.

COZ001>005-013-030-031-151100-
...NORTHWEST COLORADO...

CITY           SKY/WX    TMP DP  RH WIND       PRES   REMARKS
CRAIG          FAIR       4  -1  80 SW3       30.35F
HAYDEN         FAIR      16  10  77 E12       30.35F WCI   3
MEEKER         FAIR      13   8  81 VRB5      30.36S WCI   5
RABBIT EARS PA FAIR      12  10  92 W10G18    30.26S WCI  -1
STEAMBOAT SPGS FAIR      10   8  92 CALM      30.35S
WALDEN         FAIR       5  -2  72 SE6       30.29S WCI  -6
$$

COZ006>008-011-151100-
...WEST CENTRAL VALLEYS...

CITY           SKY/WX    TMP DP  RH WIND       PRES   REMARKS
GRAND JUNCTION FAIR      23  13  65 SE5       30.38R WCI  17
MONTROSE       FAIR      17  11  77 S9        30.41R WCI   6
EAGLE          FAIR       8   3  80 CALM      30.45R
RIFLE          FAIR      16   8  71 CALM      30.42R
DELTA          FAIR      22   7  52 NE5       30.41R WCI  16
NUCLA          FAIR      21   9  58 E8        30.39R WCI  12
$$

COZ017>023-064>068-151100-
...SOUTHWEST COLORADO...

CITY           SKY/WX    TMP DP  RH WIND       PRES   REMARKS
DURANGO        FAIR      15  11  83 NE3       30.30R
CORTEZ         FAIR      16   3  56 E8        30.32R WCI   5
PAGOSA SPRINGS FAIR      17  15  93 E3        30.31R
TELLURIDE      FAIR      19  -3  38 E3        30.35R
WOLF CREEK PAS FAIR      18 -17  21 NW10      30.34R WCI   6
$$

COZ009-010-012-014-032>034-037-058>063-151100-
...CENTRAL COLORADO...

CITY           SKY/WX    TMP DP  RH WIND       PRES   REMARKS
ASPEN          FAIR       9   1  70 S6        30.36R WCI  -1
BUENA VISTA    FAIR      18   2  50 NW10      30.28R WCI   6
COPPER MTN     NOT AVBL
BERTHOUD PASS  FAIR       1  -9  60 NW17G32   30.22S WCI -19
COTTONWOOD PAS FAIR      30 -13  15 NW13G20   30.24S WCI  20
GUNNISON       FAIR       5   1  83 CALM      30.39R
KREMMLING      FAIR       3   0  85 CALM      30.41R
LEADVILLE      FAIR      -2  -9  72 CALM      30.28S
MONARCH PASS   FAIR       9   0  66 SW20      30.37R WCI -11
SALIDA         FAIR      17   6  62 CALM      30.35S
SUNLIGHT       FAIR      16  -2  45 W8        30.37R WCI   5
WILKERSON PASS FAIR      21 -15  19 NW15G33   30.23R WCI   8
$$

COZ069>075-151100-
...SAN LUIS VALLEY/SANGRE DE CRISTO MOUNTAINS...

CITY           SKY/WX    TMP DP  RH WIND       PRES   REMARKS
ALAMOSA        FAIR      -1  -5  82 SW5       30.30R WCI -11
DEL NORTE      FAIR      18   2  50 W7        30.30R WCI   8
LA VETA PASS   FAIR      14   7  73 SW24        N/A  WCI  -5
SAGUACHE       FAIR      23   9  54 NW13G25   30.29S WCI  11
$$

COZ035-036-038>040-151100-
...NORTHERN COLORADO FRONT RANGE...

CITY           SKY/WX    TMP DP  RH WIND       PRES   REMARKS
DENVER INTL AP FAIR      28   9  44 SW18      30.11F WCI  15
DMNS CITY PARK NOT AVBL
AURORA         CLEAR     22  14  69 S10       30.13S WCI  12
FRONT RANGE AP FAIR      26  13  58 S13       30.12F WCI  15
ERIE MUNI ARPT FAIR      17  14  88 SW3       30.17F
BOULDER MUN AP FAIR      25  18  74 S5        30.10F WCI  19
CENTENNIAL     FAIR      23   9  55 SE3       30.12S
BROOMFIELD     FAIR      25  19  80 CALM      30.11F
FORT COLLINS   FAIR      20  15  81 NE6       30.11F WCI  12
LONGMONT       FAIR      17  12  78 SW3       30.13F
$$

COZ041-046-047-076>085-087-088-151100-
...PIKES PEAK/PALMER DIVIDE AND SOUTHERN FOOTHILLS...

CITY           SKY/WX    TMP DP  RH WIND       PRES   REMARKS
COLO. SPRINGS  FAIR      21  19  92 N7        30.17S FOG     WCI  12
A. F. ACADEMY  FAIR      10   7  87 N12       30.14F WCI  -4
SCHRIEVER AFB  FAIR      16  15  95 CALM      30.17S FOG
CHEYENNE MTN   FAIR      29   2  31 CALM      30.10R
ELLICOTT         N/A    N/A N/A N/A N3        30.15F
FALCON         FAIR      19  10  68 NW8       30.15F WCI   8
FORT CARSON    FAIR      20  17  90 N10       30.15F WCI   8
LIMON          FAIR       5   4  95 N7        30.14F WCI  -7
MONUMENT HILL  FAIR      14   3  62 SW10      30.16S WCI   1
CANON CITY     FAIR      32   9  37 W23       30.18R WCI  19
WALSENBURG     FAIR      28  12  50 W15G22    30.18S WCI  17
TRINIDAD       FAIR      25  19  78 SW17      30.19F WCI  12
$$

COZ042>045-048>051-090-091-151100-
...NORTHEAST COLORADO...

CITY           SKY/WX    TMP DP  RH WIND       PRES   REMARKS
GREELEY ARPT   FAIR       9   3  77 CALM      30.13F
AKRON          FAIR      19  12  74 SW10      30.10F WCI   7
BURLINGTON     FAIR      18  14  84 W10       30.16S WCI   6
WRAY           FAIR      16  12  86 W7        30.15F WCI   6
YUMA           FAIR      19  14  79 W10       30.13F WCI   8
STERLING       FAIR      12  10  92 SW8       30.13F WCI   1
HOLYOKE        FAIR      19  16  86 W10       30.13F WCI   8
FORT MORGAN    FAIR      11   8  87 W10       30.12F WCI  -2
$$

COZ086-089-092>099-151100-
...SOUTHEAST COLORADO...

CITY           SKY/WX    TMP DP  RH WIND       PRES   REMARKS
PUEBLO         CLOUDY    22  19  89 W5        30.20S FOG     WCI  16
LA JUNTA       FAIR      22  20  92 W8        30.20F WCI  12
LAMAR          FAIR      18  14  84 SW10      30.20F WCI   6
SPRINGFIELD      N/A     21  19  92 W6        30.22F WCI  13
$$




USA.gov is the U.S. government's official web portal to all federal, state and local government web resources and services.